Content
SEND FEEDBACK

Daily
Averages
Monthly
Summary
United States of America

BROOKLINE, MASSACHUSETTS


Home > North America > United States > Massachusetts
Elevation: 118 feet     Latitude: 42 24N     Longitude: 071 06W

WEATHER
 
SELECT A DAY
Number of Records: 202,845;   Date Range: 1/1/95 - 8/25/14
 
SHARE

PRINT THIS DATA

[ ← Previous Day ]
WEATHER ALMANAC - MAY 6, 2013
[ Next Day → ]
[ °C ]   °F
Weather ElementAverageHighLow
Temperature48.3 °F54 °F (9:54 pm)42.8 °F (5:05 am)
Dewpoint44.7 °F48.9 °F (8:54 pm)42.1 °F (1:54 am)
Humidity87.7 %100 % (5:05 am)76 % (11:36 am)
Barometer30.24 in30.31 in (8:54 am)30.17 in (7:54 pm)
Wind Speed7.1 mph13.8 mph (2:54 pm)
Weather ElementAverage
Visibility7 mi
Wind DirectionESE (119.5 °)

Weather ElementTotal
Precipitation---
Heating Degree Days16.6 (Base 65)
Averaged from 38 records on May 6, 2013
WEATHER CONDITIONS BREAKOUT
WIND DIRECTION BREAKOUT
WEATHER BY HOUR - MAY 6, 2013
[ °C ]   °F
Local TimeTemperatureDewpointHumidityBarometerVisibilityWind DirectionWind SpeedGust SpeedPrecipitationEventsConditions
1:54 AM46.0 °F42.1 °F86 %30.27 in10.0 miSSW (200°)3.5 mphClear
2:24 AM44.6 °F42.8 °F93 %30.26 in10.0 miSouth (180°)4.6 mphMostly Cloudy
2:34 AM46.4 °F42.8 °F87 %30.26 in10.0 miSouth (190°)3.5 mphMostly Cloudy
2:54 AM45.0 °F42.1 °F90 %30.26 in10.0 miSouth (170°)4.6 mphMostly Cloudy
3:54 AM45.0 °F43.0 °F93 %30.26 in10.0 miSouth (180°)8.1 mphOvercast
4:54 AM43.0 °F42.1 °F97 %30.26 in3.0 miSSW (210°)3.5 mphOvercast
5:05 AM42.8 °F42.8 °F100 %30.26 in2.0 miSW (220°)3.5 mphOvercast
5:12 AM42.8 °F42.8 °F100 %30.27 in1.8 miSSW (210°)3.5 mphOvercast
5:42 AM42.8 °F42.8 °F100 %30.27 in2.5 miCalmOvercast
5:54 AM43.0 °F42.1 °F97 %30.27 in2.0 miSouth (180°)3.5 mphOvercast
6:10 AM42.8 °F42.8 °F100 %30.28 in0.5 miEast (80°)4.6 mphOvercast
6:54 AM44.1 °F42.1 °F93 %30.29 in0.5 miVariable3.5 mphOvercast
7:54 AM44.1 °F42.1 °F93 %30.30 in0.5 miSE (140°)5.8 mphOvercast
8:54 AM43.0 °F42.1 °F97 %30.31 in0.2 miSE (130°)5.8 mphOvercast
9:34 AM44.6 °F42.8 °F93 %30.31 in6.0 miESE (120°)4.6 mphOvercast
9:54 AM45.0 °F42.1 °F90 %30.30 in7.0 miESE (110°)3.5 mphOvercast
10:10 AM46.4 °F42.8 °F87 %30.30 in10.0 miSSE (150°)4.6 mphOvercast
10:54 AM46.9 °F43.0 °F86 %30.30 in10.0 miESE (120°)3.5 mphOvercast
11:36 AM50.0 °F42.8 °F76 %30.29 in10.0 miEast (80°)5.8 mphScattered Clouds
11:54 AM51.1 °F44.1 °F77 %30.28 in10.0 miESE (120°)5.8 mphPartly Cloudy
12:54 PM52.0 °F45.0 °F77 %30.26 in10.0 miEast (80°)9.2 mphPartly Cloudy
1:54 PM53.1 °F46.0 °F77 %30.25 in10.0 miEast (90°)11.5 mphPartly Cloudy
2:54 PM53.1 °F46.9 °F80 %30.23 in10.0 miESE (110°)13.8 mphPartly Cloudy
3:11 PM51.8 °F46.4 °F82 %30.22 in10.0 miEast (80°)11.5 mphScattered Clouds
3:39 PM51.8 °F46.4 °F82 %30.21 in8.0 miEast (80°)13.8 mphMostly Cloudy
3:46 PM51.8 °F46.4 °F82 %30.21 in6.0 miEast (80°)11.5 mphMostly Cloudy
3:54 PM51.1 °F46.9 °F86 %30.21 in8.0 miEast (80°)12.7 mphMostly Cloudy
4:02 PM51.8 °F46.4 °F82 %30.20 in8.0 miENE (70°)12.7 mphScattered Clouds
4:34 PM51.8 °F46.4 °F82 %30.19 in4.0 miEast (80°)12.7 mphMostly Cloudy
4:54 PM50.0 °F46.9 °F89 %30.19 in3.0 miEast (80°)13.8 mphMostly Cloudy
5:29 PM51.8 °F46.4 °F82 %30.19 in6.0 miEast (80°)13.8 mphScattered Clouds
5:54 PM50.0 °F46.9 °F89 %30.18 in6.0 miENE (70°)12.7 mphScattered Clouds
6:54 PM51.1 °F46.9 °F86 %30.18 in10.0 miEast (80°)11.5 mphScattered Clouds
7:54 PM51.1 °F48.0 °F89 %30.17 in10.0 miEast (80°)9.2 mphPartly Cloudy
8:54 PM52.0 °F48.9 °F89 %30.18 in10.0 miCalmPartly Cloudy
9:54 PM54.0 °F48.0 °F80 %30.19 in10.0 miSSW (210°)4.6 mphPartly Cloudy
10:54 PM54.0 °F48.9 °F83 %30.19 in10.0 miSouth (190°)3.5 mphPartly Cloudy
11:54 PM53.1 °F46.9 °F80 %30.19 in10.0 miSSW (210°)5.8 mphPartly Cloudy
Hourly data recorded from KBOS, located miles away from Brookline, Massachusetts







STORIES FROM OUR PARTNERS